Location: Lawrence
(38.9720°N, 95.2350°W)
Time: 02:44:53
(UTC-05:00)

Amateur Radio Satellites - All Passes

Search period start: 27 July 2016 02:14
Search period end: 28 July 2016 02:14
Location: Lawrence, 38.9720°N, 95.2350°W

Satellite Date Start Highest point End Downlink Frequencies (MHz)
Time Altitude Azimuth
AIST 1 27 Jul 02:24:14 02:27:10 18° 273° (W) 02:30:07
ITUPSAT 1 27 Jul 02:26:52 02:31:21 41° 71° (ENE) 02:35:51 437.325
Oscar 19 27 Jul 02:30:35 02:35:37 50° 100° (E) 02:40:39 437.125/150
GONETS M04 27 Jul 02:42:54 02:51:19 47° 76° (ENE) 02:59:43
ISS 27 Jul 02:56:10 02:57:59 14° 18° (NNE) 02:59:48 145.825
JUGNU 27 Jul 03:14:14 03:15:11 10° 174° (S) 03:16:07 437.505
SWISSCUBE 27 Jul 03:20:03 03:24:40 49° 260° (W) 03:29:20 437.505
JAS-2 27 Jul 03:21:06 03:24:38 18° 295° (WNW) 03:28:19 435.910
PCSat 27 Jul 03:31:00 03:32:37 11° 40° (NE) 03:34:13 145.827
Cosmos 2499 27 Jul 03:35:24 03:43:15 70° 81° (E) 03:50:29 435.465 / 435.565
CUSAT 1 27 Jul 03:37:18 03:40:19 19° 96° (E) 03:42:53 437.405
BEESAT 27 Jul 03:41:53 03:46:11 32° 263° (W) 03:50:29 436.000
Gurwin Techsat 1B 27 Jul 03:48:30 03:53:47 68° 286° (WNW) 03:59:03 435.225
KKS-1 27 Jul 03:52:00 03:56:02 36° 71° (ENE) 04:00:07 437.445
AO-7 27 Jul 03:56:47 04:03:22 25° 95° (E) 04:09:52 29.400- 29.500
DANDE 27 Jul 03:57:08 04:00:28 16° 93° (E) 04:03:21 436.750
BEESAT 3 27 Jul 04:01:04 04:04:59 54° 56° (NE) 04:08:51 437.485
ITAMSAT 1 27 Jul 04:04:19 04:09:26 56° 101° (E) 04:14:30 435.822/435.867
ITUPSAT 1 27 Jul 04:05:51 04:09:19 20° 266° (W) 04:12:48 437.325
BEESAT 2 27 Jul 04:06:50 04:10:30 33° 53° (NE) 04:14:08 435.950
Oscar 19 27 Jul 04:10:56 04:14:32 19° 296° (WNW) 04:18:09 437.125/150
MOZHAYETS 4 27 Jul 04:24:07 04:28:46 85° 76° (ENE) 04:33:25
STARS 27 Jul 04:31:06 04:35:17 47° 72° (ENE) 04:39:32 437.465
ISS 27 Jul 04:31:43 04:34:56 63° 36° (NE) 04:38:10 145.825
GONETS M04 27 Jul 04:40:06 04:47:52 37° 274° (W) 04:55:39
JUGNU 27 Jul 05:01:54 05:03:15 11° 185° (S) 05:04:35 437.505
HORYU 2 27 Jul 05:10:00 05:11:47 12° 91° (E) 05:13:34 437.375
PCSat 27 Jul 05:11:42 05:17:06 64° 60° (ENE) 05:22:28 145.827
CUSAT 1 27 Jul 05:18:59 05:22:12 21° 281° (WNW) 05:24:53 437.405
KKS-1 27 Jul 05:29:30 05:32:41 19° 266° (W) 05:35:55 437.445
Cosmos 2499 27 Jul 05:30:14 05:35:22 20° 280° (W) 05:40:17 435.465 / 435.565
SRMSAT 27 Jul 05:30:51 05:31:31 10° 174° (S) 05:32:11 437.500
DANDE 27 Jul 05:37:31 05:43:10 49° 280° (W) 05:47:25 436.750
BEESAT 3 27 Jul 05:40:46 05:42:10 12° 252° (WSW) 05:43:33 437.485
CUBESAT XI-V 27 Jul 05:43:04 05:47:39 69° 75° (ENE) 05:52:14 437.345
ITAMSAT 1 27 Jul 05:45:01 05:48:26 18° 297° (WNW) 05:51:50 435.822/435.867
BEESAT 2 27 Jul 05:45:11 05:48:06 20° 249° (WSW) 05:51:01 435.950
AO-7 27 Jul 05:48:24 05:56:41 68° 292° (WNW) 06:04:52 29.400- 29.500
NOAA 15 27 Jul 06:05:17 06:06:37 11° 90° (E) 06:07:57 137.62
AIST 2 27 Jul 06:06:00 06:09:43 30° 52° (NE) 06:13:26 435.215
STARS 27 Jul 06:09:28 06:11:53 14° 268° (W) 06:14:19 437.465
ISS 27 Jul 06:09:35 06:11:00 12° 231° (SW) 06:12:23 145.825
NOAA 18 27 Jul 06:19:13 06:20:58 11° 90° (E) 06:22:43 137.9125
RS-15 27 Jul 06:30:25 06:40:33 40° 106° (ESE) 06:51:09 29.354- 29.394
GOMX 1 27 Jul 06:36:25 06:39:25 15° 92° (E) 06:42:29 467.674
HORYU 2 27 Jul 06:44:18 06:48:42 57° 286° (WNW) 06:53:02 437.375
LilacSat-2 27 Jul 06:51:20 06:54:16 20° 94° (E) 06:57:09 437.200
PCSat 27 Jul 06:56:41 06:59:55 16° 256° (WSW) 07:03:07 145.827
Cubesat XI-IV 27 Jul 06:58:02 07:02:38 29° 96° (E) 07:07:11 437.490
O/OREOS (USA 219) 27 Jul 06:58:51 07:03:17 52° 65° (ENE) 07:07:43 437.305
STRAND 1 27 Jul 07:09:37 07:14:17 36° 69° (ENE) 07:18:57 437.568
BRITE-PL 27 Jul 07:10:03 07:14:54 70° 101° (ESE) 07:20:09 437.365/2234.400
SRMSAT 27 Jul 07:18:27 07:19:44 11° 184° (S) 07:21:00 437.500
CUTE-I 27 Jul 07:21:19 07:26:30 48° 100° (E) 07:31:36 437.470
CUBESAT XI-V 27 Jul 07:24:34 07:25:28 10° 270° (W) 07:26:22 437.345
NOAA 15 27 Jul 07:41:41 07:46:57 82° 286° (WNW) 07:52:14 137.62
AO-7 27 Jul 07:43:45 07:47:54 15° 312° (NW) 07:52:02 29.400- 29.500
AIST 2 27 Jul 07:44:42 07:48:03 24° 248° (WSW) 07:51:24 435.215
NOAA 18 27 Jul 07:56:41 08:02:15 84° 286° (WNW) 08:07:46 137.9125
CANX-2 27 Jul 08:03:59 08:04:17 10° 90° (E) 08:04:35 2200.000
DOVE 4 27 Jul 08:06:03 08:11:09 56° 100° (E) 08:16:20 437.250
Cosmos 2491 27 Jul 08:11:59 08:18:58 26° 68° (ENE) 08:25:54 435.465 / 435.565
GOMX 1 27 Jul 08:12:45 08:17:45 61° 285° (WNW) 08:23:01 467.674
CUTE 1.7 + AOD 2 27 Jul 08:15:57 08:17:49 13° 91° (E) 08:19:42 437.475
CINEMA 3 27 Jul 08:18:59 08:22:53 22° 93° (E) 08:26:43 145.822/145.860
LilacSat-2 27 Jul 08:25:18 08:28:31 25° 290° (WNW) 08:31:42 437.200
Cubesat XI-IV 27 Jul 08:37:55 08:42:41 34° 292° (WNW) 08:47:26 437.490
PRISM 27 Jul 08:39:49 08:43:30 34° 71° (ENE) 08:47:12 437.425
O/OREOS (USA 219) 27 Jul 08:39:55 08:42:12 14° 261° (W) 08:44:30 437.305
RS-15 27 Jul 08:41:04 08:52:24 61° 308° (NW) 09:04:25 29.354- 29.394
SO-50 27 Jul 08:46:50 08:51:43 80° 120° (ESE) 08:56:35 436.795
STRAND 1 27 Jul 08:49:15 08:53:29 26° 265° (W) 08:57:44 437.568
BRITE-PL 27 Jul 08:50:36 08:52:55 13° 295° (WNW) 08:55:18 437.365/2234.400
SEEDS 27 Jul 08:53:50 08:57:16 25° 95° (E) 09:00:41 437.485
CUTE-I 27 Jul 09:02:15 09:06:10 21° 296° (WNW) 09:10:04 437.470
COMPASS 1 27 Jul 09:05:43 09:09:02 23° 95° (E) 09:12:19 437.405
UWE-3 27 Jul 09:05:51 09:07:32 12° 89° (E) 09:09:11 435.000/436.395/437.385
HO-68 27 Jul 09:15:39 09:22:48 63° 103° (ESE) 09:29:54 435.675
NOAA 15 27 Jul 09:25:14 09:25:52 10° 302° (WNW) 09:26:30 137.62
CUBEBUG 2 27 Jul 09:25:56 09:30:07 31° 96° (E) 09:34:10 437.445
TIGRISAT 27 Jul 09:32:36 09:34:10 12° 62° (ENE) 09:35:44 435.000
AAUSAT CUBESAT 2 27 Jul 09:33:36 09:37:27 38° 98° (E) 09:41:17 437.432
CANX-2 27 Jul 09:36:21 09:40:31 60° 285° (WNW) 09:44:39 2200.000
YUBILEINY 27 Jul 09:38:33 09:46:26 39° 86° (E) 09:54:21 435.215
NOAA 18 27 Jul 09:40:15 09:42:01 12° 303° (WNW) 09:43:47 137.9125
DOVE 4 27 Jul 09:44:56 09:48:23 18° 295° (WNW) 09:51:52 437.250
Oscar 11 27 Jul 09:46:28 09:49:46 21° 94° (E) 09:53:03 145.826/435.025
UNISAT 6 27 Jul 09:47:15 09:50:21 18° 65° (ENE) 09:53:28 437.425
CUTE 1.7 + AOD 2 27 Jul 09:49:52 09:53:56 48° 286° (WNW) 09:57:57 437.475
CINEMA 3 27 Jul 09:55:25 10:00:06 40° 289° (WNW) 10:04:43 145.822/145.860
DELFI C3 27 Jul 09:58:36 09:59:22 10° 91° (E) 10:00:07 145.870
Cosmos 2491 27 Jul 10:07:48 10:16:27 67° 268° (W) 10:25:06 435.465 / 435.565
PRISM 27 Jul 10:16:14 10:18:54 17° 266° (W) 10:21:35 437.425
ANTELSAT 27 Jul 10:24:14 10:28:34 42° 72° (ENE) 10:33:00 437.575/2403.000
SEEDS 27 Jul 10:29:29 10:32:53 25° 290° (WNW) 10:36:15 437.485
SO-50 27 Jul 10:29:48 10:32:46 16° 318° (NW) 10:35:43 436.795
FUNcube-1 27 Jul 10:39:15 10:43:45 80° 102° (ESE) 10:48:06 145.935
UWE-3 27 Jul 10:39:51 10:44:24 61° 286° (WNW) 10:48:49 435.000/436.395/437.385
ZACube-1 27 Jul 10:40:13 10:44:44 87° 100° (E) 10:49:07 437.345
COMPASS 1 27 Jul 10:41:06 10:44:31 26° 290° (WNW) 10:47:56 437.405
NANOSAT C BR1 27 Jul 10:57:44 10:59:48 13° 64° (ENE) 11:01:53 145.865
RS-15 27 Jul 10:59:12 11:08:12 24° 338° (NNW) 11:17:30 29.354- 29.394
M-CUBED/EXP-1 PRIME 27 Jul 11:00:56 11:05:22 39° 103° (ESE) 11:09:45 437.505
DUCHIFAT 1 27 Jul 11:01:50 11:04:02 14° 65° (ENE) 11:06:13 145.980
CUBEBUG 2 27 Jul 11:02:43 11:06:34 25° 292° (WNW) 11:10:20 437.445
HO-68 27 Jul 11:04:21 11:09:57 25° 300° (WNW) 11:15:32 435.675
TIGRISAT 27 Jul 11:05:35 11:10:11 74° 259° (W) 11:14:53 435.000
AAUSAT CUBESAT 2 27 Jul 11:10:04 11:12:36 16° 293° (WNW) 11:15:08 437.432
Cosmos 2504 27 Jul 11:17:02 11:25:36 58° 91° (E) 11:34:12 435.465 / 435.565
QB50P1 27 Jul 11:18:41 11:22:05 24° 69° (ENE) 11:25:31 145.935-145.965
Oscar 11 27 Jul 11:22:08 11:25:54 30° 290° (WNW) 11:29:40 145.826/435.025
UNISAT 6 27 Jul 11:22:14 11:26:40 46° 261° (W) 11:31:11 437.425
POPSAT HIP 1 27 Jul 11:24:55 11:28:31 28° 70° (ENE) 11:32:09 437.405
AUBIESAT-1 27 Jul 11:26:50 11:31:28 62° 106° (ESE) 11:36:01 437.475
DELFI C3 27 Jul 11:30:41 11:34:30 50° 286° (WNW) 11:38:19 145.870
YUBILEINY 27 Jul 11:34:48 11:43:03 44° 285° (WNW) 11:51:24 435.215
QB50P2 27 Jul 11:45:17 11:49:23 51° 74° (ENE) 11:53:33 145.880/145.840
JAS-2 27 Jul 11:47:22 11:51:37 21° 66° (ENE) 11:55:38 435.910
POLYITAN 1 27 Jul 11:47:54 11:52:02 52° 74° (ENE) 11:56:13 437.675
HUMSAT D 27 Jul 11:53:54 11:58:03 64° 285° (WNW) 12:02:08 437.325/437.525
AISAT 27 Jul 11:59:10 12:01:09 13° 91° (E) 12:03:08 437.250
ANTELSAT 27 Jul 12:02:15 12:05:26 18° 268° (W) 12:08:40 437.575/2403.000
Cosmos 2491 27 Jul 12:10:30 12:11:28 10° 287° (WNW) 12:12:26 435.465 / 435.565
NANOSAT C BR1 27 Jul 12:30:58 12:35:04 51° 260° (W) 12:39:14 145.865
ESTCUBE 1 27 Jul 12:32:45 12:37:08 52° 100° (E) 12:41:30 437.505/2401.250
DUCHIFAT 1 27 Jul 12:35:12 12:39:16 49° 260° (W) 12:43:24 145.980
M-CUBED/EXP-1 PRIME 27 Jul 12:35:56 12:39:35 23° 298° (WNW) 12:43:14 437.505
SPROUT 27 Jul 12:43:57 12:46:54 18° 93° (E) 12:49:50 437.525
VELOX 1 27 Jul 12:48:45 12:53:00 43° 99° (E) 12:57:14 145.980
BUGSAT 1 27 Jul 12:48:56 12:53:00 81° 258° (WSW) 12:57:10 437.445
CUBEBUG 1 27 Jul 12:49:26 12:53:45 53° 100° (E) 12:58:03 437.445
50 SAT 27 Jul 12:50:29 12:53:59 47° 100° (E) 12:57:26 437.505
QB50P1 27 Jul 12:54:09 12:57:44 27° 264° (W) 13:01:22 145.935-145.965
POPSAT HIP 1 27 Jul 13:00:52 13:04:15 23° 265° (W) 13:07:41 437.405
AUBIESAT-1 27 Jul 13:02:43 13:05:23 15° 301° (WNW) 13:08:02 437.475
Cosmos 2504 27 Jul 13:11:45 13:19:22 32° 289° (WNW) 13:27:02 435.465 / 435.565
AIST 1 27 Jul 13:14:38 13:17:49 21° 88° (E) 13:21:01
RS-15 27 Jul 13:18:21 13:27:01 21° 15° (NNE) 13:35:45 29.354- 29.394
QB50P2 27 Jul 13:23:40 13:25:29 12° 269° (W) 13:27:19 145.880/145.840
POLYITAN 1 27 Jul 13:26:23 13:28:08 12° 269° (W) 13:29:53 437.675
Gurwin Techsat 1B 27 Jul 13:30:12 13:34:07 21° 64° (ENE) 13:38:01 435.225
JAS-2 27 Jul 13:30:27 13:36:26 52° 259° (W) 13:41:50 435.910
DX 1 27 Jul 13:32:28 13:36:52 83° 284° (WNW) 13:41:14 434.975-435.025
AISAT 27 Jul 13:33:34 13:37:56 55° 287° (WNW) 13:42:17 437.250
TISAT 1 27 Jul 13:38:50 13:41:32 16° 93° (E) 13:44:14 437.305
UKube-1 27 Jul 13:45:46 13:50:06 75° 286° (WNW) 13:54:25 .
Oscar 19 27 Jul 13:46:11 13:51:13 65° 74° (ENE) 13:56:19 437.125/150
ESTCUBE 1 27 Jul 14:11:01 14:13:29 15° 296° (WNW) 14:15:57 437.505/2401.250
SPROUT 27 Jul 14:18:58 14:22:57 37° 289° (WNW) 14:26:54 437.525
AO-85 27 Jul 14:21:04 14:26:26 74° 120° (ESE) 14:31:38 145.980
VELOX 1 27 Jul 14:26:15 14:29:07 17° 295° (WNW) 14:31:58 145.980
50 SAT 27 Jul 14:27:01 14:27:09 10° 295° (WNW) 14:27:17 437.505
CUBEBUG 1 27 Jul 14:27:16 14:29:35 14° 296° (WNW) 14:31:53 437.445
ITUPSAT 1 27 Jul 14:31:02 14:32:20 11° 90° (E) 14:33:37 437.325
AIST 1 27 Jul 14:51:35 14:55:13 27° 284° (WNW) 14:58:53
AO-7 27 Jul 14:54:28 15:01:39 34° 59° (ENE) 15:08:51 29.400- 29.500
Gurwin Techsat 1B 27 Jul 15:08:34 15:13:41 48° 261° (W) 15:18:50 435.225
TISAT 1 27 Jul 15:13:22 15:17:19 39° 288° (WNW) 15:21:17 437.305
ITAMSAT 1 27 Jul 15:20:56 15:26:09 76° 74° (ENE) 15:31:23 435.822/435.867
SWISSCUBE 27 Jul 15:21:18 15:25:52 45° 99° (E) 15:30:23 437.505
Oscar 19 27 Jul 15:28:29 15:30:58 14° 269° (W) 15:33:29 437.125/150
RS-15 27 Jul 15:31:54 15:43:45 49° 46° (NE) 15:55:27 29.354- 29.394
GONETS M04 27 Jul 15:42:11 15:50:33 56° 90° (E) 15:58:59
BEESAT 27 Jul 15:42:30 15:47:16 69° 102° (ESE) 15:51:59 436.000
CUSAT 1 27 Jul 15:50:43 15:53:40 41° 262° (W) 15:57:17 437.405
AO-85 27 Jul 16:03:45 16:07:25 19° 316° (NW) 16:10:59 145.980
ITUPSAT 1 27 Jul 16:05:52 16:10:38 70° 286° (WNW) 16:15:21 437.325
HORYU 2 27 Jul 16:08:00 16:09:11 11° 62° (ENE) 16:10:22 437.375
Cosmos 2499 27 Jul 16:08:15 16:16:57 61° 91° (E) 16:25:27 435.465 / 435.565
DANDE 27 Jul 16:16:57 16:19:34 73° 262° (W) 16:22:31 436.750
MOZHAYETS 4 27 Jul 16:21:08 16:24:38 21° 94° (E) 16:28:05
AO-7 27 Jul 16:45:51 16:54:00 56° 257° (WSW) 17:02:13 29.400- 29.500
SWISSCUBE 27 Jul 17:00:02 17:03:17 19° 295° (WNW) 17:06:32 437.505
ITAMSAT 1 27 Jul 17:04:14 17:06:08 12° 270° (W) 17:08:03 435.822/435.867
SO-50 27 Jul 17:19:44 17:24:14 49° 54° (NE) 17:28:35 436.795
KKS-1 27 Jul 17:19:58 17:24:29 87° 108° (ESE) 17:28:58 437.445
BEESAT 27 Jul 17:22:21 17:24:27 13° 298° (WNW) 17:26:31 436.000
NOAA 15 27 Jul 17:23:09 17:26:34 18° 63° (ENE) 17:29:58 137.62
PHONESAT 2.4 27 Jul 17:31:30 17:34:25 40° 157° (SSE) 17:37:20 2401.200-2431.200
GONETS M04 27 Jul 17:40:22 17:47:45 30° 290° (WNW) 17:55:13
HORYU 2 27 Jul 17:40:37 17:45:05 74° 257° (WSW) 17:49:36 437.375
CUBESAT XI-V 27 Jul 17:41:43 17:44:55 18° 93° (E) 17:48:08 437.345
NOAA 18 27 Jul 17:43:00 17:47:08 22° 63° (ENE) 17:51:17 137.9125
RS-15 27 Jul 17:44:40 17:56:31 56° 249° (WSW) 18:08:10 29.354- 29.394
GOMX 1 27 Jul 17:45:44 17:46:54 11° 62° (ENE) 17:48:04 467.674
BEESAT 3 27 Jul 17:52:56 17:54:21 12° 108° (ESE) 17:55:47 437.485
STARS 27 Jul 17:57:34 18:02:01 74° 286° (WNW) 18:06:27 437.465
MOZHAYETS 4 27 Jul 17:57:44 18:01:52 34° 289° (WNW) 18:05:57
Cosmos 2499 27 Jul 18:03:04 18:10:30 29° 290° (WNW) 18:17:51 435.465 / 435.565
Cubesat XI-IV 27 Jul 18:18:38 18:23:40 43° 70° (ENE) 18:28:44 437.490
BRITE-PL 27 Jul 18:20:34 18:24:40 65° 75° (ENE) 18:28:49 437.365/2234.400
CUTE-I 27 Jul 18:41:48 18:47:08 71° 74° (ENE) 18:52:30 437.470
NOAA 15 27 Jul 19:00:42 19:05:51 57° 259° (W) 19:11:02 137.62
SO-50 27 Jul 19:01:21 19:04:16 17° 251° (WSW) 19:07:07 436.795
LilacSat-2 27 Jul 19:05:06 19:08:56 62° 260° (W) 19:12:48 437.200
PHONESAT 2.4 27 Jul 19:07:47 19:10:51 70° 353° (N) 19:13:55 2401.200-2431.200
DOVE 4 27 Jul 19:10:46 19:14:48 43° 72° (ENE) 19:19:05 437.250
CUBESAT XI-V 27 Jul 19:18:08 19:22:27 40° 288° (WNW) 19:26:44 437.345
CINEMA 3 27 Jul 19:20:11 19:23:04 17° 64° (ENE) 19:26:01 145.822/145.860
GOMX 1 27 Jul 19:20:18 19:24:24 61° 260° (W) 19:28:40 467.674
NOAA 18 27 Jul 19:22:03 19:27:24 50° 260° (W) 19:32:48 137.9125
STRAND 1 27 Jul 19:23:04 19:25:17 13° 90° (E) 19:27:29 437.568
BEESAT 3 27 Jul 19:27:42 19:31:32 53° 304° (WNW) 19:35:24 437.485
BEESAT 2 27 Jul 19:34:39 19:38:37 87° 307° (NW) 19:42:36 435.950
HO-68 27 Jul 19:42:54 19:49:31 42° 65° (ENE) 19:56:10 435.675
SEEDS 27 Jul 19:45:13 19:47:47 16° 66° (ENE) 19:50:21 437.485
YUBILEINY 27 Jul 19:51:01 19:56:31 18° 63° (ENE) 20:01:59 435.215
PCSat 27 Jul 19:51:48 19:57:13 77° 115° (ESE) 20:02:39 145.827
COMPASS 1 27 Jul 19:56:19 19:58:37 15° 66° (ENE) 20:00:55 437.405
Cubesat XI-IV 27 Jul 19:59:41 20:03:52 23° 266° (W) 20:08:06 437.490
CUBEBUG 2 27 Jul 20:22:55 20:26:32 23° 67° (ENE) 20:30:12 437.445
AAUSAT CUBESAT 2 27 Jul 20:23:00 20:26:15 23° 69° (ENE) 20:29:31 437.432
CUTE-I 27 Jul 20:25:06 20:27:40 13° 270° (W) 20:30:14 437.470
CANX-2 27 Jul 20:27:21 20:31:38 80° 75° (ENE) 20:35:55 2200.000
CUTE 1.7 + AOD 2 27 Jul 20:40:40 20:44:56 83° 255° (WSW) 20:49:15 437.475
Oscar 11 27 Jul 20:40:52 20:43:24 15° 65° (ENE) 20:45:57 145.826/435.025
PHONESAT 2.4 27 Jul 20:44:24 20:47:29 75° 11° (N) 20:50:34 2401.200-2431.200
DOVE 4 27 Jul 20:50:19 20:52:48 15° 269° (W) 20:55:22 437.250
CINEMA 3 27 Jul 20:55:25 20:59:44 47° 262° (W) 21:04:18 145.822/145.860
STRAND 1 27 Jul 20:59:50 21:04:55 69° 286° (WNW) 21:09:58 437.568
O/OREOS (USA 219) 27 Jul 21:09:43 21:14:10 78° 110° (ESE) 21:18:39 437.305
ISS 27 Jul 21:10:17 21:13:17 35° 135° (SE) 21:16:17 145.825
Cosmos 2491 27 Jul 21:12:14 21:19:24 30° 83° (E) 21:26:34 435.465 / 435.565
Cosmos 2504 27 Jul 21:13:34 21:18:42 18° 63° (ENE) 21:23:35 435.465 / 435.565
BEESAT 2 27 Jul 21:16:54 21:17:04 10° 319° (NW) 21:17:13 435.950
SEEDS 27 Jul 21:19:08 21:23:08 41° 262° (W) 21:27:09 437.485
COMPASS 1 27 Jul 21:29:47 21:33:47 45° 261° (W) 21:37:49 437.405
HO-68 27 Jul 21:30:44 21:37:13 37° 262° (W) 21:43:47 435.675
FUNcube-1 27 Jul 21:32:56 21:37:19 52° 74° (ENE) 21:41:47 145.935
ZACube-1 27 Jul 21:34:09 21:38:35 58° 74° (ENE) 21:43:07 437.345
UWE-3 27 Jul 21:34:48 21:39:21 89° 229° (SW) 21:44:03 435.000/436.395/437.385
PCSat 27 Jul 21:37:40 21:41:13 17° 315° (NW) 21:44:46 145.827
AIST 2 27 Jul 21:40:01 21:44:07 87° 303° (WNW) 21:48:16 435.215
YUBILEINY 27 Jul 21:45:44 21:54:38 88° 87° (E) 22:03:26 435.215
M-CUBED/EXP-1 PRIME 27 Jul 21:46:33 21:50:00 34° 65° (ENE) 21:53:43 437.505
PRISM 27 Jul 21:57:05 22:01:11 68° 102° (ESE) 22:05:16 437.425
AAUSAT CUBESAT 2 27 Jul 21:58:03 22:01:36 27° 264° (W) 22:05:09 437.432
CUBEBUG 2 27 Jul 21:58:47 22:02:55 34° 264° (W) 22:07:11 437.445
AUBIESAT-1 27 Jul 22:11:47 22:15:29 57° 70° (ENE) 22:19:33 437.475
DELFI C3 27 Jul 22:14:49 22:18:47 73° 77° (ENE) 22:22:46 145.870
Oscar 11 27 Jul 22:14:57 22:19:08 46° 261° (W) 22:23:20 145.826/435.025
PHONESAT 2.4 27 Jul 22:21:03 22:23:52 33° 205° (SSW) 22:26:40 2401.200-2431.200
HUMSAT D 27 Jul 22:43:15 22:47:32 73° 76° (ENE) 22:51:51 437.325/437.525
ISS 27 Jul 22:46:57 22:49:45 26° 332° (NNW) 22:52:33 145.825
O/OREOS (USA 219) 27 Jul 22:52:56 22:54:09 11° 307° (NW) 22:55:22 437.305
AO-85 27 Jul 22:54:54 22:59:03 40° 53° (NE) 23:02:53 145.980
AISAT 27 Jul 22:57:05 22:57:53 10° 62° (ENE) 22:58:41 437.250
TIGRISAT 27 Jul 22:59:00 23:02:51 25° 95° (E) 23:06:35 435.000
Cosmos 2504 27 Jul 23:05:06 23:13:16 84° 264° (W) 23:20:46 435.465 / 435.565
Cosmos 2491 27 Jul 23:07:13 23:15:42 56° 282° (WNW) 23:24:14 435.465 / 435.565
FUNcube-1 27 Jul 23:11:30 23:13:51 14° 269° (W) 23:16:13 145.935
ZACube-1 27 Jul 23:13:14 23:15:13 13° 270° (W) 23:17:13 437.345
UNISAT 6 27 Jul 23:15:13 23:19:35 41° 98° (E) 23:23:50 437.425
AIST 2 27 Jul 23:22:15 23:23:14 11° 319° (NW) 23:24:13 435.215
M-CUBED/EXP-1 PRIME 27 Jul 23:22:20 23:24:42 16° 264° (W) 23:27:10 437.505
50 SAT 27 Jul 23:27:33 23:30:09 19° 69° (ENE) 23:32:45 437.505
ESTCUBE 1 27 Jul 23:30:59 23:35:12 41° 72° (ENE) 23:39:24 437.505/2401.250
SPROUT 27 Jul 23:37:41 23:39:29 12° 64° (ENE) 23:41:17 437.525
CUBEBUG 1 27 Jul 23:44:15 23:48:12 36° 71° (ENE) 23:52:10 437.445
YUBILEINY 27 Jul 23:44:57 23:50:08 17° 282° (WNW) 23:55:18 435.215
VELOX 1 27 Jul 23:44:57 23:48:51 33° 70° (ENE) 23:52:48 145.980
ANTELSAT 27 Jul 23:53:30 23:58:09 76° 284° (WNW) 00:02:38 437.575/2403.000
NANOSAT C BR1 28 Jul 00:16:50 00:20:27 26° 96° (E) 00:24:02 145.865
DUCHIFAT 1 28 Jul 00:20:43 00:24:23 27° 96° (E) 00:28:00 145.980
DX 1 28 Jul 00:26:29 00:30:46 72° 76° (ENE) 00:35:06 434.975-435.025
AISAT 28 Jul 00:29:21 00:33:42 73° 257° (WSW) 00:38:07 437.250
TISAT 1 28 Jul 00:31:03 00:32:16 11° 63° (ENE) 00:33:30 437.305
BUGSAT 1 28 Jul 00:33:00 00:35:42 16° 93° (E) 00:38:22 437.445
TIGRISAT 28 Jul 00:35:29 00:39:28 29° 291° (WNW) 00:43:22 435.000
AO-85 28 Jul 00:36:21 00:39:04 17° 252° (WSW) 00:41:40 145.980
UKube-1 28 Jul 00:38:44 00:43:01 78° 75° (ENE) 00:47:21 .
QB50P1 28 Jul 00:39:16 00:43:27 51° 100° (E) 00:47:36 145.935-145.965
JAS-2 28 Jul 00:40:56 00:44:33 18° 94° (E) 00:48:21 435.910
POPSAT HIP 1 28 Jul 00:45:44 00:50:00 60° 101° (E) 00:54:13 437.405
UNISAT 6 28 Jul 00:52:43 00:55:57 19° 294° (WNW) 00:59:08 437.425
AIST 1 28 Jul 00:58:51 01:03:09 59° 81° (E) 01:07:27
50 SAT 28 Jul 01:00:32 01:03:36 25° 263° (W) 01:06:41 437.505
Cosmos 2504 28 Jul 01:01:44 01:05:07 13° 285° (WNW) 01:08:24 435.465 / 435.565
QB50P2 28 Jul 01:06:53 01:11:10 70° 284° (WNW) 01:15:25 145.880/145.840
ESTCUBE 1 28 Jul 01:09:12 01:12:09 17° 267° (W) 01:15:07 437.505/2401.250
POLYITAN 1 28 Jul 01:09:32 01:13:49 69° 285° (WNW) 01:18:03 437.675
SPROUT 28 Jul 01:10:43 01:14:54 57° 259° (W) 01:19:09 437.525
CUBEBUG 1 28 Jul 01:21:41 01:24:36 18° 267° (W) 01:27:32 437.445
VELOX 1 28 Jul 01:22:07 01:25:22 20° 266° (W) 01:28:40 145.980
ITUPSAT 1 28 Jul 01:36:35 01:38:41 13° 62° (ENE) 01:40:49 437.325
NANOSAT C BR1 28 Jul 01:52:35 01:56:04 24° 291° (WNW) 01:59:30 145.865
GONETS M04 28 Jul 01:54:23 02:01:26 26° 68° (ENE) 02:08:28
DUCHIFAT 1 28 Jul 01:56:31 01:59:56 24° 291° (WNW) 02:03:19 145.980
Oscar 19 28 Jul 01:59:26 02:03:41 25° 95° (E) 02:07:54 437.125/150
TISAT 1 28 Jul 02:03:12 02:07:21 63° 259° (W) 02:11:33 437.305
Cosmos 2499 28 Jul 02:03:31 02:08:27 18° 64° (ENE) 02:13:10 435.465 / 435.565
ISS 28 Jul 02:03:45 02:04:44 11° 12° (NNE) 02:05:41 145.825
